Location: Kunchanapalle
(16.4623°N, 80.6176°E)
Time: 13:23:35
(UTC+00:00)

DELTA 2 R/B (1) - Pass Details

Date: 13 August 2020
Orbit: 791 x 802 km, 39.6° (Epoch: 24 September)

Event Time Altitude Azimuth Distance (km) Brightness Sun altitude
Exits shadow 22:32:20 62° 301° (WNW) 895 3.6 -25.4°
Maximum altitude 22:32:43 64° 323° (NW) 882 3.6 -25.3°
Drops below altitude 10° 22:38:15 10° 44° (NE) 2,366 6.9 -24.1°
Sets 22:40:46 0° 48° (NE) 3,296 8.0 -23.6°
